[[{"header":{"parameterUnit":"m.s-1","parameterCategory":1,"la1":30.2991,"la2":30.254,"lo1":-89.0895,"lo2":-89.0444,"dy":0.0017,"dx":0.0017,"nx":28,"ny":28,"refTime":"2024-03-19T03:00:00:Z","depth":0,"parameterNumber":2,"parameterNumberName":"U-component_of_WINDS"},"data":[0,0,0,0,0,0,0,0,0,0,0,0,0,0,0,0,0,0,0,0,0,0,0,0,0,0,0,0,0,0,0,0,0,0,0,0,0,0,0,0,0,0,0,0,0,0,0,0,0,0,0,0,0,0,0,0,0,0,-4.0203,-4.0203,0,-4.022,-4.022,-4.022,-4.0141,-4.0139,-4.0136,-4.0134,-4.0152,-4.0155,-4.0157,0,0,0,0,0,0,0,0,0,0,0,0,0,-4.0101,-4.0104,-4.0203,-4.0203,-4.0203,-4.022,-4.022,-4.022,-4.0141,-4.0138,-4.0136,-4.0133,-4.0151,-4.0154,-4.0158,0,0,0,0,0,0,0,0,0,0,0,0,0,-4.0135,-4.0104,-4.0203,-4.0166,-4.0162,-4.022,-4.022,-4.0221,-4.0142,-4.0138,-4.0135,-4.0132,-4.015,-4.0154,-4.0158,-4.0252,0,0,-4.017,-4.0172,0,0,0,0,0,0,0,0,-4.0133,-4.0139,-4.0171,-4.0168,-4.0165,-4.0175,-4.0191,-4.0231,-4.0143,-4.015,-4.0134,-4.013,-4.0163,-4.0165,-4.0176,-4.0253,-4.0254,-4.0171,-4.0173,-4.0175,-4.0176,0,0,0,0,0,0,0,-4.0131,-4.0137,-4.0209,-4.0171,-4.0168,-4.0148,-4.0149,-4.0198,-4.0175,-4.0149,-4.0143,-4.0146,-4.016,-4.0173,-4.0176,-4.0254,-4.017,-4.0174,-4.0176,-4.0178,-4.0409,-4.0413,0,0,0,0,0,0,-4.0133,-4.0136,-4.0209,-4.021,-4.014,-4.0153,-4.0154,-4.0175,-4.0175,-4.0171,-4.0149,-4.0142,-4.0167,-4.0171,-4.0176,-4.0287,-4.0175,-4.0178,-4.0181,-4.0405,-4.041,-4.0414,0,0,0,0,0,0,-4.0131,-4.0141,-4.0208,-4.0171,-4.0179,-4.0158,-4.0183,-4.0177,-4.0189,-4.0175,-4.017,-4.0166,-4.0165,-4.0171,-4.0234,-4.0286,-4.018,-4.0184,-4.0401,-4.0407,-4.0412,-4.0508,0,0,0,0,0,0,-4.0129,-4.014,-4.0176,-4.0173,-4.0181,-4.0266,-4.0186,-4.018,-4.0196,-4.0188,-4.0189,-4.0186,-4.0163,-4.0228,-4.0238,-4.029,-4.0187,-4.0396,-4.0403,-4.041,-4.05,-4.0516,-4.053,0,0,0,0,0,-4.0126,-4.0202,-4.0178,-4.0187,-4.0225,-4.0269,-4.0273,-4.0244,-4.0201,-4.0236,-4.0227,-4.0186,-4.0279,-4.0236,-4.0245,-4.0299,-4.0393,-4.0401,-4.041,-4.0493,-4.0513,-4.053,0,0,0,0,0,0,-4.0212,-4.0201,-4.0174,-4.0252,-4.0262,-4.0255,-4.0299,-4.0266,-4.0289,-4.028,-4.0243,-4.0244,-4.0313,-4.0312,-4.0264,-4.039,-4.0328,-4.0339,-4.0388,-4.0407,-4.0422,-4.0421,-4.019,0,0,0,0,0,-4.024,-4.0277,-4.0265,-4.0335,-4.0341,-4.032,-4.0338,-4.0315,-4.0323,-4.0327,-4.0322,-4.0333,-4.0364,-4.0385,-4.0413,-4.0499,-4.0499,-4.0541,-4.0556,-4.0569,-4.0579,-4.0624,-4.0643,-4.0442,-4.0442,-4.0442,0,0,-4.0298,-4.0297,-4.0322,-4.0352,-4.0357,-4.0396,-4.0324,-4.0368,-4.0396,-4.0334,-4.0393,-4.039,-4.0399,-4.0475,-4.0507,-4.0476,-4.0634,-4.0579,-4.0589,-4.0593,-4.0635,-4.0654,-4.0671,-4.0447,-4.0446,-4.0446,0,0,-4.0424,-4.0427,-4.0486,-4.0492,-4.0501,-4.0486,-4.05,-4.0499,-4.0494,-4.0553,-4.0507,-4.0541,-4.0595,-4.0604,-4.0615,-4.0745,-4.0709,-4.0755,-4.0834,-4.0879,-4.0895,-4.0908,-4.0955,-4.0972,-4.0765,-4.0766,-4.0766,0,-4.0496,-4.0553,-4.052,-4.0568,-4.0582,-4.0527,-4.0587,-4.0595,-4.0612,-4.0623,-4.0588,-4.0656,-4.0658,-4.0734,-4.0766,-4.0777,-4.0792,-4.0755,-4.0895,-4.0909,-4.0921,-4.0965,-4.0983,-4.0771,-4.0771,-4.077,-4.0769,0,-4.064,-4.068,-4.0727,-4.0745,-4.0765,-4.0818,-4.0794,-4.0818,-4.0793,-4.0782,-4.0843,-4.0844,-4.0871,-4.0888,-4.0864,-4.0961,-4.0941,-4.0901,-4.0838,-4.0946,-4.0987,-4.1004,-4.0779,-4.0777,-4.0776,-4.0774,0,0,-4.0821,-4.0821,-4.0838,-4.0846,-4.0852,-4.0882,-4.0933,-4.096,-4.0981,-4.0995,-4.1037,-4.1085,-4.1048,-4.1061,-4.1037,-4.1077,-4.118,-4.1032,-4.1031,-4.106,-4.1288,-4.1318,-4.1338,-4.1156,-4.1159,-4.1162,-4.1287,0,-4.0945,-4.1032,-4.1004,-4.1092,-4.1129,-4.1077,-4.1122,-4.113,-4.1121,-4.1151,-4.1141,-4.1176,-4.1124,-4.1132,-4.1169,-4.116,-4.1226,-4.1151,-4.1195,-4.1197,-4.1194,-4.1359,-4.1392,-4.151,-4.1303,-4.1306,-4.1307,0,-4.1101,-4.1121,-4.1213,-4.1212,-4.1227,-4.1267,-4.129,-4.1319,-4.1327,-4.1318,-4.1333,-4.1302,-4.1352,-4.1289,-4.1357,-4.1307,-4.1323,-4.1322,-4.1326,-4.1329,-4.1259,-4.1367,-4.1547,-4.1565,-4.1332,-4.133,-4.1328,0,-4.1224,-4.1274,-4.1335,-4.1344,-4.1345,-4.1374,-4.1376,-4.1381,-4.1399,-4.1419,-4.143,-4.1456,-4.147,-4.149,-4.1466,-4.1423,-4.1539,-4.1474,-4.1533,-4.1534,-4.1559,-4.1558,-4.1745,-4.157,-4.157,-4.157,-4.1569,0,-4.1365,-4.1423,-4.1391,-4.1429,-4.1492,-4.146,-4.1524,-4.152,-4.1525,-4.1561,-4.1518,-4.1553,-4.152,-4.1552,-4.1534,-4.1594,-4.16,-4.1594,-4.1589,-4.1598,-4.1599,-4.1609,-4.16,-4.1574,-4.1573,-4.1572,-4.1572,0,-4.1513,-4.1494,-4.1557,-4.1553,-4.1554,-4.1601,-4.1597,-4.1632,-4.162,-4.1667,-4.1676,-4.1658,-4.1693,-4.1672,-4.1708,-4.1695,-4.1773,-4.1757,-4.1771,-4.1766,-4.1827,-4.1821,-4.2026,-4.2051,-4.1861,-4.1862,-4.1864,0,-4.1605,-4.1648,-4.1649,-4.167,-4.1675,-4.171,-4.1728,-4.1698,-4.1719,-4.1732,-4.1765,-4.1797,-4.1821,-4.188,-4.187,-4.1898,-4.1881,-4.1951,-4.1885,-4.1893,-4.1882,-4.188,-4.1885,-4.1964,-4.1967,-4.1968,-4.197,0,-4.1769,-4.1758,-4.1785,-4.181,-4.1833,-4.1851,-4.1866,-4.1886,-4.1856,-4.1881,-4.1917,-4.1936,-4.1973,-4.2005,-4.2028,-4.203,-4.1996,-4.1991,-4.2006,-4.2016,-4.2022,-4.202,-4.1807,-4.1986,-4.1985,-4.1983,-4.1983,-4.1982,-4.1892,-4.1928,-4.1935,-4.1967,-4.1975,-4.199,-4.2022,-4.2015,-4.2044,-4.2072,-4.2052,-4.2095,-4.2103,-4.213,-4.2137,-4.217,-4.2141,-4.2163,-4.2169,-4.2175,-4.2183,-4.2017,-4.2174,-4.2173,-4.2173,-4.2172,-4.2172,0,-4.2054,-4.2056,-4.2086,-4.2108,-4.2134,-4.2099,-4.2113,-4.2137,-4.2175,-4.2185,-4.2209,-4.2251,-4.2282,-4.2275,-4.2303,-4.2331,-4.2316,-4.2339,-4.2337,-4.2338,-4.2207,-4.2191,-4.2351,-4.2351,-4.2351,-4.2351,-4.2351,-4.2351,-4.2142,-4.2202,-4.2191,-4.2254,-4.2255,-4.2297,-4.2308,-4.2321,-4.2329,-4.2377,-4.2403,-4.2398,-4.2401,-4.2429,-4.2457,-4.2453,-4.2466,-4.2495,-4.2487,-4.2365,-4.2347,-4.233,-4.2315,-4.2498,-4.2499,-4.2615,-4.2616,-4.2617]},{"header":{"parameterUnit":"m.s-1","parameterCategory":1,"la1":30.2991,"la2":30.254,"lo1":-89.0895,"lo2":-89.0444,"dy":0.0017,"dx":0.0017,"nx":28,"ny":28,"refTime":"2024-03-19T03:00:00:Z","depth":0,"parameterNumber":3,"parameterNumberName":"V-component_of_WINDS"},"data":[0,0,0,0,0,0,0,0,0,0,0,0,0,0,0,0,0,0,0,0,0,0,0,0,0,0,0,0,0,0,0,0,0,0,0,0,0,0,0,0,0,0,0,0,0,0,0,0,0,0,0,0,0,0,0,0,0,0,-2.5357,-2.5357,0,-2.5356,-2.5356,-2.5356,-2.53,-2.5298,-2.5297,-2.5295,-2.5296,-2.5297,-2.5298,0,0,0,0,0,0,0,0,0,0,0,0,0,-2.5309,-2.531,-2.5357,-2.5357,-2.5357,-2.5356,-2.5356,-2.5356,-2.53,-2.5298,-2.5296,-2.5294,-2.5295,-2.5297,-2.5299,0,0,0,0,0,0,0,0,0,0,0,0,0,-2.5321,-2.5311,-2.5357,-2.5329,-2.5326,-2.5356,-2.5356,-2.5356,-2.53,-2.5298,-2.5296,-2.5294,-2.5295,-2.5297,-2.5299,-2.5357,0,0,-2.5305,-2.5306,0,0,0,0,0,0,0,0,-2.5321,-2.5323,-2.5333,-2.5331,-2.5328,-2.5326,-2.534,-2.5357,-2.5301,-2.531,-2.5295,-2.5293,-2.5308,-2.5308,-2.5313,-2.5357,-2.5357,-2.5305,-2.5307,-2.5308,-2.5308,0,0,0,0,0,0,0,-2.532,-2.5323,-2.5357,-2.5333,-2.533,-2.5316,-2.5315,-2.5343,-2.5321,-2.5309,-2.5305,-2.5306,-2.5306,-2.5311,-2.5313,-2.5357,-2.5305,-2.5307,-2.5309,-2.5309,-2.5446,-2.5449,0,0,0,0,0,0,-2.5323,-2.5323,-2.5357,-2.5357,-2.5319,-2.5319,-2.5318,-2.5329,-2.5321,-2.5318,-2.5308,-2.5303,-2.5309,-2.5311,-2.5313,-2.5379,-2.5308,-2.531,-2.5311,-2.5444,-2.5447,-2.5449,0,0,0,0,0,0,-2.5322,-2.5327,-2.5357,-2.5339,-2.5341,-2.5322,-2.5335,-2.533,-2.5335,-2.532,-2.5316,-2.5317,-2.5307,-2.531,-2.5346,-2.5379,-2.531,-2.5312,-2.5441,-2.5445,-2.5448,-2.5514,0,0,0,0,0,0,-2.5321,-2.5327,-2.5349,-2.5339,-2.5343,-2.539,-2.5337,-2.5331,-2.5339,-2.5333,-2.5328,-2.5325,-2.5306,-2.5343,-2.5348,-2.538,-2.5314,-2.5438,-2.5443,-2.5447,-2.5508,-2.5519,-2.5528,0,0,0,0,0,-2.532,-2.5367,-2.535,-2.5354,-2.5369,-2.5392,-2.5394,-2.5371,-2.5342,-2.5364,-2.5353,-2.5325,-2.5374,-2.5347,-2.5352,-2.5386,-2.5436,-2.5441,-2.5447,-2.5504,-2.5517,-2.5528,0,0,0,0,0,0,-2.5382,-2.5366,-2.5346,-2.5393,-2.5394,-2.5383,-2.5409,-2.5385,-2.5395,-2.5389,-2.536,-2.536,-2.54,-2.5396,-2.5367,-2.5441,-2.54,-2.5407,-2.5442,-2.5454,-2.5463,-2.5464,-2.5316,0,0,0,0,0,-2.5401,-2.542,-2.5405,-2.5448,-2.5449,-2.5429,-2.5438,-2.542,-2.5421,-2.5421,-2.5414,-2.5416,-2.5431,-2.5442,-2.5456,-2.5507,-2.5505,-2.5533,-2.5543,-2.5551,-2.5557,-2.5583,-2.5595,-2.5467,-2.5467,-2.5467,0,0,-2.544,-2.5434,-2.5448,-2.546,-2.5459,-2.548,-2.543,-2.5455,-2.547,-2.5425,-2.5458,-2.5453,-2.5453,-2.5497,-2.5516,-2.5495,-2.5592,-2.5557,-2.5564,-2.5566,-2.559,-2.5602,-2.5613,-2.5471,-2.547,-2.5469,0,0,-2.5523,-2.552,-2.5555,-2.5555,-2.5553,-2.554,-2.5548,-2.554,-2.5534,-2.5567,-2.5534,-2.5551,-2.5579,-2.558,-2.5585,-2.5667,-2.5641,-2.5672,-2.5723,-2.5749,-2.5759,-2.5768,-2.5797,-2.5808,-2.5678,-2.5678,-2.5678,0,-2.5573,-2.5603,-2.5576,-2.5602,-2.5608,-2.5568,-2.5602,-2.5603,-2.5607,-2.5612,-2.5589,-2.5622,-2.5619,-2.5662,-2.5682,-2.5687,-2.5696,-2.5673,-2.576,-2.5768,-2.5776,-2.5804,-2.5815,-2.5682,-2.5681,-2.5681,-2.5681,0,-2.5663,-2.5685,-2.5713,-2.5716,-2.5725,-2.5756,-2.5734,-2.5746,-2.5727,-2.5715,-2.5749,-2.5744,-2.5756,-2.5765,-2.5746,-2.5805,-2.5792,-2.5765,-2.5723,-2.5793,-2.5818,-2.5828,-2.5687,-2.5686,-2.5685,-2.5684,0,0,-2.5787,-2.5774,-2.5785,-2.5785,-2.5781,-2.5797,-2.5825,-2.5836,-2.5847,-2.585,-2.5873,-2.5897,-2.5871,-2.5876,-2.5857,-2.588,-2.5945,-2.585,-2.5849,-2.5868,-2.6009,-2.603,-2.6043,-2.5928,-2.593,-2.5931,-2.6009,0,-2.5866,-2.5914,-2.589,-2.5941,-2.5959,-2.5921,-2.5945,-2.5945,-2.5935,-2.5949,-2.5938,-2.5955,-2.592,-2.5923,-2.5944,-2.5933,-2.5973,-2.5927,-2.5949,-2.595,-2.595,-2.6056,-2.6078,-2.6152,-2.6019,-2.6021,-2.6022,0,-2.5966,-2.5973,-2.6026,-2.6016,-2.6023,-2.6046,-2.6053,-2.6068,-2.6066,-2.6057,-2.6062,-2.6038,-2.6065,-2.6023,-2.606,-2.6029,-2.6036,-2.6033,-2.6035,-2.6036,-2.599,-2.606,-2.6175,-2.6187,-2.6037,-2.6036,-2.6035,0,-2.6051,-2.6073,-2.6107,-2.6109,-2.6099,-2.6115,-2.6112,-2.6108,-2.6116,-2.6122,-2.6127,-2.6137,-2.6143,-2.6151,-2.613,-2.6101,-2.6169,-2.6126,-2.6163,-2.6163,-2.6179,-2.6178,-2.6297,-2.6184,-2.6184,-2.6183,-2.6183,0,-2.6143,-2.6176,-2.6144,-2.6165,-2.6201,-2.6173,-2.621,-2.6202,-2.6199,-2.6218,-2.6185,-2.6203,-2.6174,-2.619,-2.6174,-2.6206,-2.6209,-2.6203,-2.6198,-2.6206,-2.6207,-2.621,-2.6205,-2.6186,-2.6186,-2.6185,-2.6185,0,-2.6243,-2.6223,-2.6258,-2.6245,-2.6242,-2.627,-2.6259,-2.6277,-2.6264,-2.6288,-2.6292,-2.6273,-2.6289,-2.6268,-2.6283,-2.6272,-2.6317,-2.6304,-2.6317,-2.6314,-2.6351,-2.6348,-2.6477,-2.6493,-2.6369,-2.637,-2.6371,0,-2.6303,-2.6328,-2.6318,-2.6327,-2.6326,-2.6342,-2.6349,-2.6323,-2.6332,-2.6331,-2.635,-2.6363,-2.6373,-2.6401,-2.6388,-2.6399,-2.6386,-2.6431,-2.6388,-2.6395,-2.6387,-2.6386,-2.6388,-2.644,-2.6441,-2.6442,-2.6443,0,-2.6412,-2.6401,-2.6412,-2.642,-2.643,-2.6435,-2.6438,-2.6448,-2.642,-2.6431,-2.6447,-2.6455,-2.6469,-2.6483,-2.649,-2.6486,-2.6461,-2.6457,-2.6466,-2.6474,-2.6481,-2.6478,-2.6341,-2.6454,-2.6453,-2.6452,-2.6452,-2.6451,-2.6494,-2.6514,-2.6509,-2.6523,-2.6522,-2.6525,-2.6542,-2.6531,-2.6543,-2.6553,-2.6536,-2.6556,-2.6553,-2.656,-2.6559,-2.6575,-2.6556,-2.6569,-2.6572,-2.6576,-2.6582,-2.6478,-2.6576,-2.6576,-2.6575,-2.6575,-2.6575,0,-2.6601,-2.6596,-2.6609,-2.6613,-2.6624,-2.6598,-2.6599,-2.661,-2.6628,-2.6627,-2.6636,-2.6655,-2.6667,-2.6655,-2.6665,-2.668,-2.6669,-2.6684,-2.6683,-2.6682,-2.6598,-2.6589,-2.6693,-2.6693,-2.6693,-2.6693,-2.6693,-2.6693,-2.6658,-2.669,-2.6678,-2.6709,-2.6703,-2.6722,-2.6725,-2.6728,-2.6727,-2.6748,-2.6759,-2.675,-2.6745,-2.6754,-2.6765,-2.6761,-2.6766,-2.6786,-2.6778,-2.67,-2.6688,-2.6677,-2.6669,-2.6787,-2.6787,-2.686,-2.6861,-2.6862]}]]